Content
SEND FEEDBACK

Daily
Averages
Monthly
Summary
United States of America

NORFOLK, VIRGINIA


Home > North America > United States > Virginia
Elevation: 4 meters     Latitude: 36 54N     Longitude: 076 12W

WEATHER
 
SELECT A DAY
Number of Records: 90,049;   Date Range: 1/1/95 - 7/29/14
 
SHARE

PRINT THIS DATA

[ ← Previous Day ]
WEATHER ALMANAC - 31 JANUARY, 2013
[ Next Day → ]
[ °F ]   °C
Weather ElementAverageHighLow
Temperature11.4 °C20.6 °C (1:51 am)3.9 °C (10:51 pm)
Dewpoint1.5 °C16 °C (2:44 am)-8.9 °C (5:51 pm)
Humidity54.6 %90 % (2:51 am)28 % (3:51 pm)
Barometer1004.1 hPa1015.6 hPa (11:51 pm)993.6 hPa (1:51 am)
Wind Speed28.3 km/h70.3 km/h (2:44 am)
Wind Gust98.2 km/h (2:44 am)
Weather ElementAverage
Visibility13 km
Wind DirectionSW (223.9 °)

Weather ElementTotal
Precipitation18.03 mm
Heating Degree Days6.1 (Base 18.3)
Growing Degree Days2.3 (Base 10)
Averaged from 28 records on 31 January, 2013
WEATHER CONDITIONS BREAKOUT
WIND DIRECTION BREAKOUT
WEATHER BY HOUR - 31 JANUARY, 2013
[ °F ]   °C
Local TimeTemperatureDewpointHumidityBarometerVisibilityWind DirectionWind SpeedGust SpeedPrecipitationEventsConditions
1:51 AM20.6 °C15.6 °C73 %993.6 hPa16.1 kmSouth (180°)44.4 km/h96.2 km/h0 mmOvercast
2:44 AM19 °C16 °C83 %994.9 hPa2.4 kmWSW (240°)70.3 km/h98.2 km/h0 mmRainRain
2:51 AM16.7 °C15 °C90 %995.3 hPa1.3 kmWSW (240°)40.7 km/h98.2 km/h3.3 mmRainHeavy Rain
2:54 AM17 °C15 °C88 %994.9 hPa1.9 kmWSW (240°)31.5 km/h74 km/h0.51 mmRainRain
3:03 AM17 °C15 °C88 %995.9 hPa4 kmWSW (250°)44.4 km/h66.6 km/h2.54 mmRainRain
3:10 AM16 °C14 °C88 %995.9 hPa4.8 kmWSW (250°)37 km/h74 km/h2.54 mmRainRain
3:20 AM14 °C12 °C88 %995.9 hPa4.8 kmWSW (250°)37 km/h68.6 km/h3.81 mmRainRain
3:51 AM13.9 °C10.6 °C81 %994.9 hPa8 kmSW (230°)38.9 km/h66.6 km/h5.33 mmRainLight Rain
4:51 AM13.9 °C8.9 °C72 %995.9 hPa16.1 kmSW (230°)46.3 km/h61.2 km/h0 mmOvercast
5:51 AM13.3 °C7.8 °C69 %997 hPa16.1 kmWSW (240°)37 km/h61.2 km/hScattered Clouds
6:51 AM12.8 °C6.1 °C64 %998.6 hPa16.1 kmWSW (240°)40.7 km/h55.5 km/hOvercast
7:51 AM10.6 °C3.9 °C63 %1001.4 hPa16.1 kmWest (260°)22.2 km/h46.3 km/hOvercast
8:51 AM11.1 °C1.1 °C50 %1003 hPa16.1 kmWest (260°)29.6 km/h48.1 km/hClear
9:51 AM10.6 °C-1.1 °C44 %1004.4 hPa16.1 kmWest (270°)22.2 km/h44.4 km/hPartly Cloudy
10:51 AM10 °C-3.9 °C38 %1005.8 hPa16.1 kmWest (270°)20.4 km/h38.9 km/hClear
11:51 AM10 °C-5 °C35 %1006.4 hPa16.1 kmWest (270°)29.6 km/h46.3 km/hClear
12:51 PM11.1 °C-5.6 °C31 %1006.4 hPa16.1 kmWest (260°)27.8 km/h50.1 km/hClear
1:51 PM10.6 °C-6.7 °C29 %1006.4 hPa16.1 kmWest (260°)18.5 km/h42.6 km/hClear
2:51 PM10.6 °C-6.7 °C29 %1007.5 hPa16.1 kmWest (270°)16.7 km/h44.4 km/hClear
3:51 PM10 °C-7.8 °C28 %1008.5 hPa16.1 kmWest (260°)22.2 km/h37 km/hClear
4:51 PM9.4 °C-8.3 °C28 %1009.8 hPa16.1 kmWest (270°)22.2 km/h40.7 km/hClear
5:51 PM7.8 °C-8.9 °C30 %1011.2 hPa16.1 kmWest (270°)16.7 km/h51.8 km/hClear
6:51 PM7.2 °C-7.8 °C34 %1012.5 hPa16.1 kmWest (260°)20.4 km/h31.5 km/hClear
7:51 PM6.7 °C-7.2 °C37 %1013.5 hPa16.1 kmVariable11.1 km/h27.8 km/hClear
8:51 PM5.6 °C-7.8 °C38 %1014.2 hPa16.1 kmVariable11.1 km/hClear
9:51 PM4.4 °C-7.2 °C43 %1014.6 hPa16.1 kmWSW (250°)11.1 km/hClear
10:51 PM3.9 °C-7.2 °C45 %1014.9 hPa16.1 kmWSW (250°)13 km/hClear
11:51 PM4.4 °C-7.2 °C43 %1015.6 hPa16.1 kmVariable11.1 km/hClear
Hourly data recorded from KORF, located 0 kilometers away from Norfolk, Virginia







STORIES FROM OUR PARTNERS